User: anonymous   Login
Location: Caltech
(34.1382°N, 118.1253°W)
Time: 20:10:52
(UTC-07:00)
Language:

Iridium 70 - Orbit

View from above orbital plane
View from above orbital plane
View from above satellite
View from above satellite

Ground track
Ground track

The orbit data is extracted from the following two-line orbital elements,

1 25342U 98032A   16274.55190764  .00000034  00000-0  50071-5 0  9990
2 25342  86.3985 332.7935 0002353  98.4120  20.1709 14.34225819961886
Epoch (UTC): 30 September 2016 13:14:44
Eccentricity: 0.0002353
inclination: 86.3985°
perigee height: 776 km
apogee height: 779 km
right ascension of ascending node: 332.7935°
argument of perigee: 98.4120°
revolutions per day: 14.34225819
mean anomaly at epoch: 20.1709°
orbit number at epoch: 96188

The dashed part of the orbit path shows where the satellite is in the earth's shadow,  

DLR